This demonstration page uses our WeatherBlox Daily Observations layout. Learn more.

38.89511, -77.03637

Hourly Observations for December 3, 2020

Temp ( °F °C ) Dew Point ( °F °C ) Humidity (%) Winds ( mph kmh ) Pressure ( in mb ) Visibility ( mi km ) Precip ( " mm )
12:52 am 00:52 Clear 39 3.9 20 -6.7 46 46 Calm 30.27 1025 10 16.0934 0 0
1:52 am 01:52 Clear 38 3.3 20 -6.7 48 48 Calm 30.28 1025 10 16.0934 0 0
2:52 am 02:52 Clear 35 1.7 24 -4.4 64 64 SSW 3 6 30.29 1026 10 16.0934 0 0
3:52 am 03:52 Clear 35 1.7 23 -5 61 61 Calm 30.28 1026 10 16.0934 0 0
4:52 am 04:52 Mostly Clear 33 0.6 26 -3.3 75 75 W 3 6 30.29 1026 10 16.0934 0 0
5:52 am 05:52 Clear 34 1.1 25 -3.9 70 70 Calm 30.3 1026 10 16.0934 0 0
6:52 am 06:52 Partly Cloudy 33 0.6 25 -3.9 72 72 Calm 30.3 1026 10 16.0934 0 0
7:52 am 07:52 Mostly Cloudy 35 1.7 26 -3.3 70 70 Calm 30.32 1027 10 16.0934 0 0
8:52 am 08:52 Mostly Cloudy 39 3.9 32 0 76 76 S 3 6 30.32 1027 10 16.0934 0 0
9:52 am 09:52 Partly Cloudy 42 5.6 31 -0.6 65 65 SSE 3 6 30.32 1027 10 16.0934 0 0
10:52 am 10:52 Sunny 46 7.8 27 -2.8 47 47 VRB 5 7 30.31 1026 10 16.0934 0 0
11:52 am 11:52 Mostly Cloudy 48 8.9 30 -1.1 50 50 S 9 15 30.29 1026 10 16.0934 0 0
12:52 pm 12:52 Mostly Cloudy 50 10 31 -0.6 48 48 SSE 8 13 30.26 1025 10 16.0934 0 0
1:52 pm 13:52 Mostly Cloudy 52 11.1 28 -2.2 40 40 S 7 11 30.23 1024 10 16.0934 0 0
2:52 pm 14:52 Mostly Cloudy 54 12.2 23 -5 30 30 S 9 15 30.23 1024 10 16.0934 0 0
3:52 pm 15:52 Mostly Cloudy 53 11.7 24 -4.4 32 32 SSW 8 13 30.22 1024 10 16.0934 0 0
4:52 pm 16:52 Mostly Cloudy 52 11.1 28 -2.2 40 40 S 3 6 30.21 1023 10 16.0934 0 0
5:52 pm 17:52 Mostly Cloudy 50 10 32 0 50 50 SW 3 6 30.23 1024 10 16.0934 0 0
6:52 pm 18:52 Cloudy 50 10 28 -2.2 43 43 Calm 30.22 1023 10 16.0934 0 0
7:52 pm 19:52 Cloudy 48 8.9 34 1.1 58 58 SSE 6 9 30.19 1023 10 16.0934 0 0
8:52 pm 20:52 Cloudy 48 8.9 30 -1.1 50 50 SSW 3 6 30.21 1023 10 16.0934 0 0
9:52 pm 21:52 Cloudy 47 8.3 34 1.1 61 61 S 7 11 30.2 1023 10 16.0934 0 0
10:52 pm 22:52 Cloudy 49 9.4 30 -1.1 48 48 SSW 7 11 30.19 1023 10 16.0934 0 0
11:52 pm 23:52 Cloudy 48 8.9 29 -1.7 48 48 S 7 11 30.17 1022 10 16.0934 0 0

Powered by AerisWeather